Home > Weather > Nagaur > Past weeks

Flag for India Past Weather in Nagaur, Rajasthan, India — Yesterday and Last 2 Weeks

Now
90 °F

Scattered clouds.


Feels Like: 108 °F
Forecast: 89 / 102 °F
Wind: 8 mph from Southwest

Location: Jaipur / Sanganer

Current Time: Jul 1, 2016 at 7:12:27 PM

Latest Report: Jul 1, 2016 at 6:00 PM


Visibility: 2 mi

Pressure: 29.45 "Hg

Humidity: 75%

Dew Point: 81 °F

Location of NagaurLocation

Past Weather in Nagaur — Graph

°F

Nagaur Temperature Yesterday

Maximum temperature yesterday: 106 °F (at 3:00 PM)
Minimum temperature yesterday: 73 °F (at 3:00 AM)
Average temperature yesterday: 96 °F

High & Low Weather Summary for the Past Weeks

 TemperatureHumidityPressure
High108 °F (Jun 17, 4:30 PM)100% (Jun 30, 3:00 AM)29.74 "Hg (Jun 30, 3:00 AM)
Low73 °F (Jun 30, 3:00 AM)19% (Jun 17, 5:00 PM)29.45 "Hg (Jul 1, 4:00 PM)
Average93 °F51%29.59 "Hg
* Reported Jun 16 4:00 PM — Jul 1 4:00 PM, Nagaur, Weather by CustomWeather, © 2016

Note: Actual official high and low records may vary slightly from our data, if they occured in-between our weather recording intervals... More about our weather records

Advertising

Nagaur Weather History for the Previous 24 Hours

Scroll right to see more
 ConditionsComfort  
Time TempWeatherWind HumidityBarometerVisibility
4:00 PM
Fri, Jul 1
91 °FBroken clouds.13 mph71%29.45 "Hg4 mi
3:30 PM90 °FBroken clouds.14 mph71%29.47 "Hg4 mi
3:00 PM90 °FBroken clouds.14 mph71%29.47 "Hg4 mi
2:30 PM88 °FBroken clouds.12 mph75%29.50 "Hg4 mi
2:00 PM86 °FBroken clouds.9 mph75%29.50 "Hg4 mi
1:30 PM84 °FBroken clouds.9 mph79%29.53 "Hg4 mi
1:00 PM82 °FDrizzle. Broken clouds.8 mph79%29.53 "Hg3 mi
11:30 AM79 °FDrizzle. Partly sunny.3 mph89%29.56 "Hg1 mi
10:30 AM79 °FDrizzle. Partly sunny.10 mph89%29.59 "Hg1 mi
10:00 AM79 °FThunderstorms. Partly sunny.5 mph89%29.62 "Hg1 mi
9:30 AM79 °FThunderstorms. Partly sunny.9 mph89%29.62 "Hg1 mi
9:00 AM79 °FThunderstorms. Partly sunny.10 mph89%29.62 "Hg1 mi
8:30 AM79 °FThunderstorms. Partly sunny.8 mph89%29.62 "Hg1 mi
8:00 AM79 °FThunderstorms. Partly sunny.12 mph89%29.62 "Hg1 mi
7:00 AM81 °FRain. Broken clouds.14 mph94%29.59 "Hg1 mi
6:30 AM84 °FDrizzle. Broken clouds.9 mph79%29.56 "Hg2 mi
6:00 AM84 °FPartly cloudy.9 mph79%29.53 "Hg2 mi
5:30 AM84 °FPassing clouds.14 mph74%29.50 "Hg2 mi
5:00 AM88 °FPassing clouds.10 mph66%29.50 "Hg2 mi
4:00 AM88 °FPassing clouds.10 mph66%29.50 "Hg2 mi
2:00 AM91 °FPassing clouds.13 mph59%29.50 "Hg2 mi
1:00 AM91 °FPassing clouds.2 mph56%29.53 "Hg2 mi
12:00 AM93 °FPassing clouds.8 mph56%29.56 "Hg2 mi
11:30 PM
Thu, Jun 30
93 °FPassing clouds.9 mph56%29.56 "Hg2 mi
11:00 PM93 °FPassing clouds.8 mph56%29.56 "Hg2 mi
10:00 PM95 °FPassing clouds.9 mph50%29.53 "Hg2 mi
9:30 PM97 °FPassing clouds.6 mph47%29.53 "Hg2 mi
9:00 PM97 °FPassing clouds.9 mph44%29.53 "Hg2 mi
8:30 PM99 °FPassing clouds.8 mph42%29.50 "Hg2 mi
8:00 PM99 °FPassing clouds.8 mph42%29.50 "Hg3 mi
7:00 PM100 °FScattered clouds.12 mph40%29.50 "Hg3 mi
Weather by CustomWeather, © 2016

See weather overviewHow to use our weather pages